Year,Month,Day,Hour,Minute,Value (Times are PST for temperature in C)
2012,10,05,09,32,13.30
2012,10,05,09,33,13.30
2012,10,05,09,34,13.30
2012,10,05,09,35,13.30
2012,10,05,09,36,13.30
2012,10,05,09,37,13.30
2012,10,05,09,38,13.40
2012,10,05,09,39,13.40
2012,10,05,09,40,13.40
2012,10,05,09,41,13.40
2012,10,05,09,42,13.40
2012,10,05,09,43,13.40
2012,10,05,09,44,13.40
2012,10,05,09,45,13.40
2012,10,05,09,46,13.40
2012,10,05,09,47,13.40
2012,10,05,09,48,13.40
2012,10,05,09,49,13.50
2012,10,05,09,50,13.60
2012,10,05,09,51,13.60
2012,10,05,09,52,13.60
2012,10,05,09,53,13.60
2012,10,05,09,54,13.70
2012,10,05,09,55,13.70
2012,10,05,09,56,13.70
2012,10,05,09,57,13.70
2012,10,05,09,58,13.70
2012,10,05,09,59,13.80
2012,10,05,10,00,13.80
2012,10,05,10,01,13.80
2012,10,05,10,02,13.80
2012,10,05,10,03,13.80
2012,10,05,10,04,13.80
2012,10,05,10,05,13.80
2012,10,05,10,06,13.80
2012,10,05,10,07,13.80
2012,10,05,10,08,13.80
2012,10,05,10,09,13.80
2012,10,05,10,10,13.80
2012,10,05,10,11,13.90
2012,10,05,10,12,13.90
2012,10,05,10,13,13.90
2012,10,05,10,14,13.90
2012,10,05,10,15,13.90
2012,10,05,10,16,13.90
2012,10,05,10,17,13.90
2012,10,05,10,18,13.90
2012,10,05,10,19,13.80
2012,10,05,10,20,13.80
2012,10,05,10,21,13.80
2012,10,05,10,22,13.80
2012,10,05,10,23,13.90
2012,10,05,10,24,13.90
2012,10,05,10,25,13.90
2012,10,05,10,26,13.90
2012,10,05,10,27,14.00
2012,10,05,10,28,14.00
2012,10,05,10,29,14.00
2012,10,05,10,30,14.10
2012,10,05,10,31,14.10
2012,10,05,10,32,14.10
2012,10,05,10,33,14.10
2012,10,05,10,34,14.10
2012,10,05,10,35,14.10
2012,10,05,10,36,14.10
2012,10,05,10,37,14.10
2012,10,05,10,38,14.20
2012,10,05,10,39,14.20
2012,10,05,10,40,14.20
2012,10,05,10,41,14.20
2012,10,05,10,42,14.20
2012,10,05,10,43,14.20
2012,10,05,10,44,14.20
2012,10,05,10,45,14.20
2012,10,05,10,46,14.20
2012,10,05,10,47,14.20
2012,10,05,10,48,14.20
2012,10,05,10,49,14.20
2012,10,05,10,50,14.30
2012,10,05,10,51,14.30
2012,10,05,10,52,14.30
2012,10,05,10,53,14.30
2012,10,05,10,54,14.30
2012,10,05,10,55,14.30
2012,10,05,10,56,14.40
2012,10,05,10,57,14.40
2012,10,05,10,58,14.40
2012,10,05,10,59,14.50
2012,10,05,11,00,14.50
2012,10,05,11,01,14.50
2012,10,05,11,02,14.50
2012,10,05,11,03,14.50
2012,10,05,11,04,14.60
2012,10,05,11,05,14.60
2012,10,05,11,06,14.70
2012,10,05,11,07,14.70
2012,10,05,11,08,14.80
2012,10,05,11,09,14.80
2012,10,05,11,10,14.90
2012,10,05,11,11,15.00
2012,10,05,11,12,15.00
2012,10,05,11,13,15.00
2012,10,05,11,14,15.00
2012,10,05,11,15,15.00
2012,10,05,11,16,15.00
2012,10,05,11,17,15.00
2012,10,05,11,18,15.00
2012,10,05,11,19,15.00
2012,10,05,11,20,15.00
2012,10,05,11,21,15.00
2012,10,05,11,22,15.00
2012,10,05,11,23,15.00
2012,10,05,11,24,15.10
2012,10,05,11,25,15.10
2012,10,05,11,26,15.10
2012,10,05,11,27,15.10
2012,10,05,11,28,15.10
2012,10,05,11,29,15.10
2012,10,05,11,30,15.20
2012,10,05,11,31,15.20
2012,10,05,11,32,15.20
2012,10,05,11,33,15.30
2012,10,05,11,34,15.30
2012,10,05,11,35,15.20
2012,10,05,11,36,15.30
2012,10,05,11,37,15.20
2012,10,05,11,38,15.20
2012,10,05,11,39,15.20
2012,10,05,11,40,15.20
2012,10,05,11,41,15.30
2012,10,05,11,42,15.30
2012,10,05,11,43,15.40
2012,10,05,11,44,15.40
2012,10,05,11,45,15.40
2012,10,05,11,46,15.40
2012,10,05,11,47,15.50
2012,10,05,11,48,15.40
2012,10,05,11,49,15.40
2012,10,05,11,50,15.50
2012,10,05,11,51,15.50
2012,10,05,11,52,15.60
2012,10,05,11,53,15.60
2012,10,05,11,54,15.60
2012,10,05,11,55,15.70
2012,10,05,11,56,15.70
2012,10,05,11,57,15.70
2012,10,05,11,58,15.70
2012,10,05,11,59,15.70
2012,10,05,12,00,15.70
2012,10,05,12,01,15.70
2012,10,05,12,02,15.80
2012,10,05,12,03,15.80
2012,10,05,12,04,15.80
2012,10,05,12,05,15.80
2012,10,05,12,06,15.80
2012,10,05,12,07,15.80
2012,10,05,12,08,15.80
2012,10,05,12,09,15.80
2012,10,05,12,10,15.80
2012,10,05,12,11,15.80
2012,10,05,12,12,15.80
2012,10,05,12,13,15.90
2012,10,05,12,14,15.90
2012,10,05,12,15,15.90
2012,10,05,12,16,15.90
2012,10,05,12,17,15.90
2012,10,05,12,18,16.00
2012,10,05,12,19,16.00
2012,10,05,12,20,16.10
2012,10,05,12,21,16.10
2012,10,05,12,22,16.10
2012,10,05,12,23,16.10
2012,10,05,12,24,16.00
2012,10,05,12,25,16.10
2012,10,05,12,26,16.10
2012,10,05,12,27,16.10
2012,10,05,12,28,16.10
2012,10,05,12,29,16.20
2012,10,05,12,30,16.20
2012,10,05,12,31,16.20
2012,10,05,12,32,16.10
2012,10,05,12,33,16.10
2012,10,05,12,34,16.10
2012,10,05,12,35,16.10
2012,10,05,12,36,16.10
2012,10,05,12,37,16.20
2012,10,05,12,38,16.20
2012,10,05,12,39,16.20
2012,10,05,12,40,16.30
2012,10,05,12,41,16.40
2012,10,05,12,42,16.40
2012,10,05,12,43,16.50
2012,10,05,12,44,16.60
2012,10,05,12,45,16.60
2012,10,05,12,46,16.60
2012,10,05,12,47,16.50
2012,10,05,12,48,16.40
2012,10,05,12,49,16.40
2012,10,05,12,50,16.40
2012,10,05,12,51,16.50
2012,10,05,12,52,16.50
2012,10,05,12,53,16.60
2012,10,05,12,54,16.60
2012,10,05,12,55,16.70
2012,10,05,12,56,16.70
2012,10,05,12,57,16.70
2012,10,05,12,58,16.70
2012,10,05,12,59,16.70
2012,10,05,13,00,16.70
2012,10,05,13,01,16.70
2012,10,05,13,02,16.70
2012,10,05,13,03,16.70
2012,10,05,13,04,16.80
2012,10,05,13,05,16.90
2012,10,05,13,06,17.00
2012,10,05,13,07,17.10
2012,10,05,13,08,17.10
2012,10,05,13,09,17.10
2012,10,05,13,10,17.10
2012,10,05,13,11,17.10
2012,10,05,13,12,17.10
2012,10,05,13,13,17.00
2012,10,05,13,14,16.90
2012,10,05,13,15,16.90
2012,10,05,13,16,16.80
2012,10,05,13,17,16.80
2012,10,05,13,18,16.80
2012,10,05,13,19,16.90
2012,10,05,13,20,16.90
2012,10,05,13,21,16.90
2012,10,05,13,22,16.90
2012,10,05,13,23,16.90
2012,10,05,13,24,16.80
2012,10,05,13,25,16.80
2012,10,05,13,26,16.80
2012,10,05,13,27,16.90
2012,10,05,13,28,16.90
2012,10,05,13,29,16.90
2012,10,05,13,30,16.90
2012,10,05,13,31,16.90
2012,10,05,13,32,16.90
2012,10,05,13,33,17.00
2012,10,05,13,34,17.00
2012,10,05,13,35,17.10
2012,10,05,13,36,17.00
2012,10,05,13,37,17.00
2012,10,05,13,38,17.00
2012,10,05,13,39,17.10
2012,10,05,13,40,17.10
2012,10,05,13,41,17.10
2012,10,05,13,42,17.10
2012,10,05,13,43,17.10
2012,10,05,13,44,17.10
2012,10,05,13,45,17.10
2012,10,05,13,46,17.10
2012,10,05,13,47,17.10
2012,10,05,13,48,17.10
2012,10,05,13,49,17.20
2012,10,05,13,50,17.20
2012,10,05,13,51,17.30
2012,10,05,13,52,17.30
2012,10,05,13,53,17.40
2012,10,05,13,54,17.40
2012,10,05,13,55,17.50
2012,10,05,13,56,17.60
2012,10,05,13,57,17.60
2012,10,05,13,58,17.70
2012,10,05,13,59,17.80
2012,10,05,14,00,17.80
2012,10,05,14,01,17.80
2012,10,05,14,02,17.90
2012,10,05,14,03,17.90
2012,10,05,14,04,17.90
2012,10,05,14,05,17.90
2012,10,05,14,06,18.00
2012,10,05,14,07,18.00
2012,10,05,14,08,18.00
2012,10,05,14,09,17.90
2012,10,05,14,10,17.90
2012,10,05,14,11,17.80
2012,10,05,14,12,17.80
2012,10,05,14,13,17.80
2012,10,05,14,14,17.90
2012,10,05,14,15,17.90
2012,10,05,14,16,18.00
2012,10,05,14,17,18.00
2012,10,05,14,18,18.10
2012,10,05,14,19,18.10
2012,10,05,14,20,18.10
2012,10,05,14,21,18.10
2012,10,05,14,22,18.10
2012,10,05,14,23,18.20
2012,10,05,14,24,18.20
2012,10,05,14,25,18.30
2012,10,05,14,26,18.30
2012,10,05,14,27,18.40
2012,10,05,14,28,18.40
2012,10,05,14,29,18.40
2012,10,05,14,30,18.40
2012,10,05,14,31,18.40
2012,10,05,14,32,18.40
2012,10,05,14,33,18.30
2012,10,05,14,34,18.30
2012,10,05,14,35,18.30
2012,10,05,14,36,18.30
2012,10,05,14,37,18.30
2012,10,05,14,38,18.30
2012,10,05,14,39,18.40
2012,10,05,14,40,18.40
2012,10,05,14,41,18.40
2012,10,05,14,42,18.40
2012,10,05,14,43,18.30
2012,10,05,14,44,18.40
2012,10,05,14,45,18.40
2012,10,05,14,46,18.40
2012,10,05,14,47,18.40
2012,10,05,14,48,18.40
2012,10,05,14,49,18.40
2012,10,05,14,50,18.50
2012,10,05,14,51,18.50
2012,10,05,14,52,18.60
2012,10,05,14,53,18.60
2012,10,05,14,54,18.50
2012,10,05,14,55,18.50
2012,10,05,14,56,18.40
2012,10,05,14,57,18.40
2012,10,05,14,58,18.30
2012,10,05,14,59,18.30
2012,10,05,15,00,18.30
2012,10,05,15,01,18.30
2012,10,05,15,02,18.30
2012,10,05,15,03,18.40
2012,10,05,15,04,18.40
2012,10,05,15,05,18.40
2012,10,05,15,06,18.50
2012,10,05,15,07,18.50
2012,10,05,15,08,18.60
2012,10,05,15,09,18.70
2012,10,05,15,10,18.70
2012,10,05,15,11,18.80
2012,10,05,15,12,18.80
2012,10,05,15,13,18.90
2012,10,05,15,14,18.90
2012,10,05,15,15,18.90
2012,10,05,15,16,18.90
2012,10,05,15,17,18.90
2012,10,05,15,18,18.80
2012,10,05,15,19,18.80
2012,10,05,15,20,18.80
2012,10,05,15,21,18.80
2012,10,05,15,22,18.90
2012,10,05,15,23,18.90
2012,10,05,15,24,19.00
2012,10,05,15,25,19.10
2012,10,05,15,26,19.10
2012,10,05,15,27,19.10
2012,10,05,15,28,19.10
2012,10,05,15,29,19.10
2012,10,05,15,30,19.10
2012,10,05,15,31,19.10
2012,10,05,15,32,19.10
2012,10,05,15,33,19.10
2012,10,05,15,34,19.10
2012,10,05,15,35,19.10
2012,10,05,15,36,19.10
2012,10,05,15,37,19.10
2012,10,05,15,38,19.10
2012,10,05,15,39,19.10
2012,10,05,15,40,19.10
2012,10,05,15,41,19.10
2012,10,05,15,42,19.10
2012,10,05,15,43,19.10
2012,10,05,15,44,19.10
2012,10,05,15,45,19.10
2012,10,05,15,46,19.10
2012,10,05,15,47,19.10
2012,10,05,15,48,19.10
2012,10,05,15,49,19.00
2012,10,05,15,50,19.00
2012,10,05,15,51,19.00
2012,10,05,15,52,19.10
2012,10,05,15,53,19.10
2012,10,05,15,54,19.20
2012,10,05,15,55,19.10
2012,10,05,15,56,19.10
2012,10,05,15,57,19.00
2012,10,05,15,58,18.90
2012,10,05,15,59,18.90
2012,10,05,16,00,18.80
2012,10,05,16,01,18.80
2012,10,05,16,02,18.70
2012,10,05,16,03,18.70
2012,10,05,16,04,18.70
2012,10,05,16,05,18.70
2012,10,05,16,06,18.70
2012,10,05,16,07,18.70
2012,10,05,16,08,18.70
2012,10,05,16,09,18.70
2012,10,05,16,10,18.60
2012,10,05,16,11,18.70
2012,10,05,16,12,18.70
2012,10,05,16,13,18.70
2012,10,05,16,14,18.70
2012,10,05,16,15,18.70
2012,10,05,16,16,18.70
2012,10,05,16,17,18.70
2012,10,05,16,18,18.80
2012,10,05,16,19,18.80
2012,10,05,16,20,18.80
2012,10,05,16,21,18.80
2012,10,05,16,22,18.70
2012,10,05,16,23,18.70
2012,10,05,16,24,18.70
2012,10,05,16,25,18.70
2012,10,05,16,26,18.70
2012,10,05,16,27,18.70
2012,10,05,16,28,18.80
2012,10,05,16,29,18.80
2012,10,05,16,30,18.80
2012,10,05,16,31,18.80
2012,10,05,16,32,18.80
2012,10,05,16,33,18.80
2012,10,05,16,34,18.80
2012,10,05,16,35,18.80
2012,10,05,16,36,18.80
2012,10,05,16,37,18.80
2012,10,05,16,38,18.90
2012,10,05,16,39,18.90
2012,10,05,16,40,18.90
2012,10,05,16,41,19.00
2012,10,05,16,42,19.00
2012,10,05,16,43,19.00
2012,10,05,16,44,19.00
2012,10,05,16,45,19.00
2012,10,05,16,46,18.90
2012,10,05,16,47,18.90
2012,10,05,16,48,18.90
2012,10,05,16,49,18.90
2012,10,05,16,50,18.80
2012,10,05,16,51,18.80
2012,10,05,16,52,18.80
2012,10,05,16,53,18.80
2012,10,05,16,54,18.80
2012,10,05,16,55,18.70
2012,10,05,16,56,18.70
2012,10,05,16,57,18.80
2012,10,05,16,58,18.80
2012,10,05,16,59,18.90
2012,10,05,17,00,18.90
2012,10,05,17,01,18.90
2012,10,05,17,02,18.90
2012,10,05,17,03,19.00
2012,10,05,17,04,19.00
2012,10,05,17,05,19.10
2012,10,05,17,06,19.10
2012,10,05,17,07,19.10
2012,10,05,17,08,19.10
2012,10,05,17,09,19.10
2012,10,05,17,10,19.10
2012,10,05,17,11,19.10
2012,10,05,17,12,19.10
2012,10,05,17,13,19.10
2012,10,05,17,14,19.10
2012,10,05,17,15,19.20
2012,10,05,17,16,19.20
2012,10,05,17,17,19.20
2012,10,05,17,18,19.20
2012,10,05,17,19,19.20
2012,10,05,17,20,19.20
2012,10,05,17,21,19.20
2012,10,05,17,22,19.20
2012,10,05,17,23,19.10
2012,10,05,17,24,19.10
2012,10,05,17,25,19.00
2012,10,05,17,26,19.00
2012,10,05,17,27,18.90
2012,10,05,17,28,18.90
2012,10,05,17,29,18.80
2012,10,05,17,30,18.80
2012,10,05,17,31,18.80
2012,10,05,17,32,18.70
2012,10,05,17,33,18.70
2012,10,05,17,34,18.70
2012,10,05,17,35,18.60
2012,10,05,17,36,18.60
2012,10,05,17,37,18.60
2012,10,05,17,38,18.60
2012,10,05,17,39,18.60
2012,10,05,17,40,18.60
2012,10,05,17,41,18.60
2012,10,05,17,42,18.60
2012,10,05,17,43,18.60
2012,10,05,17,44,18.60
2012,10,05,17,45,18.60
2012,10,05,17,46,18.60
2012,10,05,17,47,18.50
2012,10,05,17,48,18.50
2012,10,05,17,49,18.50
2012,10,05,17,50,18.40
2012,10,05,17,51,18.40
2012,10,05,17,52,18.40
2012,10,05,17,53,18.40
2012,10,05,17,54,18.40
2012,10,05,17,55,18.30
2012,10,05,17,56,18.30
2012,10,05,17,57,18.30
2012,10,05,17,58,18.30
2012,10,05,17,59,18.30
2012,10,05,18,00,18.20
2012,10,05,18,01,18.20
2012,10,05,18,02,18.20
2012,10,05,18,03,18.10
2012,10,05,18,04,18.10
2012,10,05,18,05,18.10
2012,10,05,18,06,18.10
2012,10,05,18,07,18.00
2012,10,05,18,08,18.00
2012,10,05,18,09,17.90
2012,10,05,18,10,17.90
2012,10,05,18,11,17.90
2012,10,05,18,12,17.90
2012,10,05,18,13,17.90
2012,10,05,18,14,17.80
2012,10,05,18,15,17.80
2012,10,05,18,16,17.80
2012,10,05,18,17,17.70
2012,10,05,18,18,17.70
2012,10,05,18,19,17.70
2012,10,05,18,20,17.70
2012,10,05,18,21,17.60
2012,10,05,18,22,17.60
2012,10,05,18,23,17.60
2012,10,05,18,24,17.60
2012,10,05,18,25,17.50
2012,10,05,18,26,17.50
2012,10,05,18,27,17.50
2012,10,05,18,28,17.40
2012,10,05,18,29,17.40
2012,10,05,18,30,17.40
2012,10,05,18,31,17.30
2012,10,05,18,32,17.30
2012,10,05,18,33,17.30
2012,10,05,18,34,17.30
2012,10,05,18,35,17.20
2012,10,05,18,36,17.20
2012,10,05,18,37,17.20
2012,10,05,18,38,17.10
2012,10,05,18,39,17.10
2012,10,05,18,40,17.00
2012,10,05,18,41,17.00
2012,10,05,18,42,16.90
2012,10,05,18,43,16.90
2012,10,05,18,44,16.90
2012,10,05,18,45,16.80
2012,10,05,18,46,16.80
2012,10,05,18,47,16.70
2012,10,05,18,48,16.70
2012,10,05,18,49,16.70
2012,10,05,18,50,16.60
2012,10,05,18,51,16.60
2012,10,05,18,52,16.60
2012,10,05,18,53,16.50
2012,10,05,18,54,16.50
2012,10,05,18,55,16.40
2012,10,05,18,56,16.40
2012,10,05,18,57,16.30
2012,10,05,18,58,16.30
2012,10,05,18,59,16.30
2012,10,05,19,00,16.20
2012,10,05,19,01,16.20
2012,10,05,19,02,16.20
2012,10,05,19,03,16.10
2012,10,05,19,04,16.10
2012,10,05,19,05,16.10
2012,10,05,19,06,16.10
2012,10,05,19,07,16.00
2012,10,05,19,08,15.90
2012,10,05,19,09,15.90
2012,10,05,19,10,15.90
2012,10,05,19,11,15.80
2012,10,05,19,12,15.70
2012,10,05,19,13,15.60
2012,10,05,19,14,15.40
2012,10,05,19,15,15.30
2012,10,05,19,16,15.10
2012,10,05,19,17,15.00
2012,10,05,19,18,15.00
2012,10,05,19,19,14.90
2012,10,05,19,20,14.80
2012,10,05,19,21,14.70
2012,10,05,19,22,14.60
2012,10,05,19,23,14.50
2012,10,05,19,24,14.40
2012,10,05,19,25,14.30
2012,10,05,19,26,14.30
2012,10,05,19,27,14.20
2012,10,05,19,28,14.20
2012,10,05,19,29,14.10
2012,10,05,19,30,14.10
2012,10,05,19,31,14.10
2012,10,05,19,32,14.00
2012,10,05,19,33,14.00
2012,10,05,19,34,13.90
2012,10,05,19,35,13.90
2012,10,05,19,36,13.90
2012,10,05,19,37,13.90
2012,10,05,19,38,13.80
2012,10,05,19,39,13.80
2012,10,05,19,40,13.80
2012,10,05,19,41,13.80
2012,10,05,19,42,13.70
2012,10,05,19,43,13.70
2012,10,05,19,44,13.60
2012,10,05,19,45,13.60
2012,10,05,19,46,13.60
2012,10,05,19,47,13.50
2012,10,05,19,48,13.50
2012,10,05,19,49,13.40
2012,10,05,19,50,13.40
2012,10,05,19,51,13.40
2012,10,05,19,52,13.40
2012,10,05,19,53,13.30
2012,10,05,19,54,13.30
2012,10,05,19,55,13.30
2012,10,05,19,56,13.20
2012,10,05,19,57,13.20
2012,10,05,19,58,13.20
2012,10,05,19,59,13.10
2012,10,05,20,00,13.10
2012,10,05,20,01,13.00
2012,10,05,20,02,13.00
2012,10,05,20,03,12.90
2012,10,05,20,04,12.90
2012,10,05,20,05,12.80
2012,10,05,20,06,12.80
2012,10,05,20,07,12.80
2012,10,05,20,08,12.80
2012,10,05,20,09,12.70
2012,10,05,20,10,12.70
2012,10,05,20,11,12.70
2012,10,05,20,12,12.70
2012,10,05,20,13,12.70
2012,10,05,20,14,12.60
2012,10,05,20,15,12.60
2012,10,05,20,16,12.60
2012,10,05,20,17,12.60
2012,10,05,20,18,12.60
2012,10,05,20,19,12.60
2012,10,05,20,20,12.60
2012,10,05,20,21,12.60
2012,10,05,20,22,12.60
2012,10,05,20,23,12.60
2012,10,05,20,24,12.50
2012,10,05,20,25,12.50
2012,10,05,20,26,12.50
2012,10,05,20,27,12.50
2012,10,05,20,28,12.40
2012,10,05,20,29,12.40
2012,10,05,20,30,12.40
2012,10,05,20,31,12.30
2012,10,05,20,32,12.30
2012,10,05,20,33,12.30
2012,10,05,20,34,12.20
2012,10,05,20,35,12.20
2012,10,05,20,36,12.20
2012,10,05,20,37,12.20
2012,10,05,20,38,12.10
2012,10,05,20,39,12.10
2012,10,05,20,40,12.10
2012,10,05,20,41,12.00
2012,10,05,20,42,12.00
2012,10,05,20,43,11.90
2012,10,05,20,44,11.90
2012,10,05,20,45,11.90
2012,10,05,20,46,11.80
2012,10,05,20,47,11.80
2012,10,05,20,48,11.80
2012,10,05,20,49,11.80
2012,10,05,20,50,11.70
2012,10,05,20,51,11.70
2012,10,05,20,52,11.70
2012,10,05,20,53,11.70
2012,10,05,20,54,11.70
2012,10,05,20,55,11.70
2012,10,05,20,56,11.70
2012,10,05,20,57,11.70
2012,10,05,20,58,11.70
2012,10,05,20,59,11.70
2012,10,05,21,00,11.70
2012,10,05,21,01,11.70
2012,10,05,21,02,11.70
2012,10,05,21,03,11.70
2012,10,05,21,04,11.70
